Weather Data

Pearl Creek Farm: 8878 N Farm Road 75, Walnut Grove MO 65770

<== Previous Day (Tuesday 08 Sep 2015) | Next Day (Thursday 10 Sep 2015) ==>

Summary Precipitation Data For Wednesday 09 September 2015

ElementValueUnits
Precipitation1.81"
NotesIt rained steadily most of the day and overnight.
SourcePearl Creek Farm

Summary Temperature Data For Wednesday 09 September 2015

ElementValueUnits
High Temperature81 oF
Low Temperature69 oF
Average Temperature74 oF
High Humidity95 %
Low Humidity79 %
Average Humidity90 %
SourcePearl Creek Farm

Detail Temperature Data For Wednesday 09 September 2015

Date / TimeTemp (F)RH (%)Dew Pt (F)Report Date / TimeSource
2015-09-09 00:00:00 71 94 69.2 2015-11-18 13:17:03 Pearl Creek Farm
2015-09-09 00:30:00 71 94 69.2 2015-11-18 13:17:03 Pearl Creek Farm
2015-09-09 01:00:00 71 94 69.2 2015-11-18 13:17:03 Pearl Creek Farm
2015-09-09 01:30:00 71 94 69.2 2015-11-18 13:17:03 Pearl Creek Farm
2015-09-09 02:00:00 71 94 69.0 2015-11-18 13:17:03 Pearl Creek Farm
2015-09-09 02:30:00 71 94 69.2 2015-11-18 13:17:03 Pearl Creek Farm
2015-09-09 03:00:00 71 94 69.2 2015-11-18 13:17:03 Pearl Creek Farm
2015-09-09 03:30:00 70 94 68.2 2015-11-18 13:17:03 Pearl Creek Farm
2015-09-09 04:00:00 70 94 68.2 2015-11-18 13:17:03 Pearl Creek Farm
2015-09-09 04:30:00 70 94 68.2 2015-11-18 13:17:03 Pearl Creek Farm
2015-09-09 05:00:00 70 94 68.2 2015-11-18 13:17:03 Pearl Creek Farm
2015-09-09 05:30:00 70 94 68.2 2015-11-18 13:17:03 Pearl Creek Farm
2015-09-09 06:00:00 70 94 68.2 2015-11-18 13:17:03 Pearl Creek Farm
2015-09-09 06:30:00 70 94 68.2 2015-11-18 13:17:03 Pearl Creek Farm
2015-09-09 07:00:00 70 94 68.2 2015-11-18 13:17:03 Pearl Creek Farm
2015-09-09 07:30:00 70 95 68.3 2015-11-18 13:17:03 Pearl Creek Farm
2015-09-09 08:00:00 69 94 67.2 2015-11-18 13:17:03 Pearl Creek Farm
2015-09-09 08:30:00 69 94 67.2 2015-11-18 13:17:03 Pearl Creek Farm
2015-09-09 09:00:00 70 95 68.3 2015-11-18 13:17:03 Pearl Creek Farm
2015-09-09 09:30:00 70 95 68.3 2015-11-18 13:17:03 Pearl Creek Farm
2015-09-09 10:00:00 71 94 69.2 2015-11-18 13:17:03 Pearl Creek Farm
2015-09-09 10:30:00 72 94 70.2 2015-11-18 13:17:03 Pearl Creek Farm
2015-09-09 11:00:00 72 93 69.9 2015-11-18 13:17:03 Pearl Creek Farm
2015-09-09 11:30:00 73 93 70.9 2015-11-18 13:17:03 Pearl Creek Farm
2015-09-09 12:00:00 75 92 72.4 2015-11-18 13:17:03 Pearl Creek Farm
2015-09-09 12:30:00 75 91 72.0 2015-11-18 13:17:03 Pearl Creek Farm
2015-09-09 13:00:00 76 89 72.5 2015-11-18 13:17:03 Pearl Creek Farm
2015-09-09 13:30:00 78 86 73.5 2015-11-18 13:17:03 Pearl Creek Farm
2015-09-09 14:00:00 79 85 73.9 2015-11-18 13:17:03 Pearl Creek Farm
2015-09-09 14:30:00 79 86 74.3 2015-11-18 13:17:03 Pearl Creek Farm
2015-09-09 15:00:00 80 82 74.0 2015-11-18 13:17:03 Pearl Creek Farm
2015-09-09 15:30:00 81 81 74.4 2015-11-18 13:17:03 Pearl Creek Farm
2015-09-09 16:00:00 81 82 74.8 2015-11-18 13:17:03 Pearl Creek Farm
2015-09-09 16:30:00 81 79 73.7 2015-11-18 13:17:03 Pearl Creek Farm
2015-09-09 17:00:00 80 79 72.7 2015-11-18 13:17:03 Pearl Creek Farm
2015-09-09 17:30:00 80 81 73.5 2015-11-18 13:17:03 Pearl Creek Farm
2015-09-09 18:00:00 79 82 73.0 2015-11-18 13:17:03 Pearl Creek Farm
2015-09-09 18:30:00 79 85 73.9 2015-11-18 13:17:03 Pearl Creek Farm
2015-09-09 19:00:00 78 86 73.5 2015-11-18 13:17:03 Pearl Creek Farm
2015-09-09 19:30:00 77 88 73.0 2015-11-18 13:17:03 Pearl Creek Farm
2015-09-09 20:00:00 75 89 71.4 2015-11-18 13:17:03 Pearl Creek Farm
2015-09-09 20:30:00 74 89 70.5 2015-11-18 13:17:03 Pearl Creek Farm
2015-09-09 21:00:00 73 89 69.6 2015-11-18 13:17:03 Pearl Creek Farm
2015-09-09 21:30:00 72 89 68.6 2015-11-18 13:17:03 Pearl Creek Farm
2015-09-09 22:00:00 72 91 69.1 2015-11-18 13:17:03 Pearl Creek Farm
2015-09-09 22:30:00 71 91 68.2 2015-11-18 13:17:03 Pearl Creek Farm
2015-09-09 23:00:00 71 91 68.2 2015-11-18 13:17:03 Pearl Creek Farm
2015-09-09 23:30:00 70 91 67.3 2015-11-18 13:17:03 Pearl Creek Farm

A total of 48 rows are displayed.